Voltar ao catálogo

STARLINK-37717

AtivoComunicaçõesSSO
NORAD 100226·PAYLOAD·🇺🇸 United States

Lançado Aug 4, 2026 de Vandenberg Space Force Base

Loading…

Próximas Passagens (próximas 24 horas)

TLE

AtualizadoSource: Space-Track

Época: Sep 14, 2026, 14:46 UTC

1 A0226U 26177P   26257.61558460  .00035399  00000-0  64919-3 0  9991
2 A0226  97.2838 308.4195 0000804 128.3648 231.7676 15.49207753  7588

Acompanhe STARLINK-37717 em tempo real com AllMySat

Download on the App Store